Fairbanks, AK

6:42 PM AKST on November 27, 2014 (GMT -0900)
Fairbanks International | Change Station
CLOSE
Current Station
Airport
Location: Fairbanks,
Elevation: 433 ft
Nearby Weather Stations

Elev 433 ft 64.80 °N, 147.88 °W | Updated 49 minutes ago

Clear
Clear
-13 °F
Feels Like -23 °F
N
4
Wind Variable Wind from NE

Today
High -- | Low -- °F
--% Chance of Precip.
Yesterday
High -- | Low -- °F
Precip. -- in
10:07 AM 3:09 PM
Waxing Crescent, 36% visible
Pressure 30.30 in
Visibility 10.0 miles
Clouds Clear
Windchill -23 °F
Dew Point -20 °F
Humidity 71%
Rainfall 0.00 in
Snow Depth Not available.
UV 0 out of 12
Pollen Not available.
Air Quality Not available.
Flu Activity Not available.
METAR PAFA 280253Z 05003KT 10SM CLR M25/M29 A3024 RMK AO2 SLP259 T12501289 56016

More Conditions Fewer Conditions

Pressure 30.30 in
Visibility 10.0 miles
Clouds Clear
Windchill -23 °F
Dew Point -20 °F
Humidity 71%
Rainfall 0.00 in
Snow Depth Not available.
UV 0 out of 12
Pollen Not available.
Air Quality Not available.
Flu Activity Not available.
METAR PAFA 280253Z 05003KT 10SM CLR M25/M29 A3024 RMK AO2 SLP259 T12501289 56016

More Conditions Fewer Conditions

10-Day Weather Forecast

Almanac

Astronomy

Nov. 27, 2014 Rise Set
Actual Time
Civil Twilight
Nautical Twilight
Astronomical Twilight
Moon
Length of Visible Light
Length of Day
Tomorrow will be .
, % of the Moon is Illuminated

Today's Extremes

State Highs State Lows

Community

WunderPhotos

Upload Photos

1,774,169 photos uploaded!

WunderBlogs® & News

Nearby

Air Quality

  Air Quality AQ Index Pollutant
Not available.

Snow Depth

Station Depth Elevation

Earthquake Activity

City Distance Mag. Time & Date
Minimum magnitude displayed is 2.5.

Coastal Water Temperatures

Place Temperature

Nearby Weather Stations